Aérodrome :
LOGIN :

S'inscrire | Disclaimer

   EN    FR    IT 

 










Légende :    VFR   VFR Marginal   IFR   IFR Intensif   IFR Très Intensif
Visi : 
Plafond : 
>= 8 km
>= 3000ft
5 à 8 km
1000 à 3000 ft
1500m à 5 km
500 à 1000 ft
800 à 1500m
200 à 500 ft
< 800m
< 200 ft
Symboles :   Orages  Brouillard  Fortes neiges  Fortes précipitations  Vent > 20 kt
SIGMETs :   Divers  Orages  Givrage  Turbulence  Onde Orograph.  Cendres Volcan.






- Altitude de l'aérodrome : 313 ft
- Code IATA : LEH


LFOH - Le Havre Octeville

DERNIER METAR :
  • 221330Z AUTO 00000KT 9999 OVC015 06/03 Q1037 TEMPO BKN013

METARs EXPIRÉS :
  • 221300Z AUTO 32004KT 290V360 9999 OVC015 06/04 Q1038 TEMPO BKN013
  • 221230Z AUTO 01003KT 9999 OVC015 06/03 Q1038 TEMPO BKN013
  • 221200Z AUTO 35004KT 320V030 9999 OVC016 06/03 Q1038 TEMPO BKN013
  • 221130Z AUTO 31003KT 280V010 9999 OVC016 06/03 Q1038 TEMPO BKN013
  • 221100Z AUTO VRB03KT 9999 OVC017 06/03 Q1038 TEMPO BKN013

TAF TAF LFOH
Valide du 22 à 12h jusqu'au 23 à 12h UTC


221100Z 2212/2312 VRB03KT 9999 OVC017
PROB30
TEMPO 2212/2312 BKN013
ATIS : +33 2 35 54 64 93



MET'MAP, la Météo Aéronautique d'un coup d'oeil ! - Copyright ORBIFLY Décembre 2007 - Disclaimer

ORBIFLY MET'MAP TEAM :

Programmation & Développement : Alexandra Zaïnal
Sur une idée originale de : Baudouin d'Aumeries
Assistance à la programmation : Marc-Olivier Méhu
Soutien technique & logistique : Manuel Goepfert

Contact : metmap@orbifly.com




SOURCES & CREDITS :

   NOAA